Prescott, AZ

3:27 PM MST on November 17, 2019 (GMT -0700)
Love

Weather History for KPRC - September, 2019

Change the Weather History Date:

Tuesday, September 24, 2019

  Actual Average Record
Temperature  
Mean Temperature 62 °F 65 °F  
Max Temperature 74 °F 79 °F 91 °F (2015)
Min Temperature 50 °F 50 °F 34 °F (2017)
Degree Days  
Heating Degree Days 3    
Month to date heating degree days 12  
Since 1 July heating degree days 12  
Cooling Degree Days 0    
Month to date cooling degree days 155  
Year to date cooling degree days 1130  
Growing Degree Days 12 (Base 50)    
Moisture  
Dew Point 47 °F    
Average Humidity 63    
Maximum Humidity 89    
Minimum Humidity 33    
Precipitation  
Precipitation 0.00 in 0.04 in 0.61 in (1983)
Month to date precipitation 1.62 1.26  
Year to date precipitation 9.73 10.92  
Sea Level Pressure  
Sea Level Pressure 29.94 in    
Wind  
Wind Speed 5 mph ()    
Max Wind Speed 21 mph    
Max Gust Speed 32 mph    
Visibility 9.9 miles    
Events      
T = Trace of Precipitation, MM = Missing Value Source: Averaged Metar Reports

Daily Weather History Graph

Daily Weather History Graph

Search for Another Location

Airport or City:

Astronomy

Sep. 24, 2019 Rise Set
Actual Time 6:19 AM MST 6:23 PM MST
Civil Twilight 5:53 AM MST 6:48 PM MST
Nautical Twilight 5:24 AM MST 7:18 PM MST
Astronomical Twilight 4:54 AM MST 7:47 PM MST
Moon 1:23 AM MST (9/24) 3:58 PM MST (9/24)
Length of Visible Light 12h 54m
Length of Day
12h 04m
Waning Crescent, 22% of the Moon is Illuminated
Sep 24
Waning Crescent
Sep 28
New
Oct 5
First Quarter
Oct 13
Full
Oct 21
Last Quarter

Hourly Weather History & Observations

Time (MST) Temp. Dew Point Humidity Pressure Visibility Wind Dir Wind Speed Gust Speed Precip Events Conditions
12:53 AM 55.0 °F 48.0 °F 77% 29.95 in 10.0 mi ESE 5.8 mph - N/A   Scattered Clouds
1:53 AM 55.0 °F 46.9 °F 74% 30.00 in 10.0 mi North 5.8 mph - N/A   Scattered Clouds
2:53 AM 53.1 °F 48.0 °F 83% 29.99 in 10.0 mi WNW 6.9 mph - N/A   Overcast
3:53 AM 52.0 °F 46.9 °F 83% 29.98 in 10.0 mi NW 9.2 mph - N/A   Partly Cloudy
4:53 AM 51.1 °F 46.9 °F 86% 29.98 in 10.0 mi Calm Calm - N/A   Clear
5:53 AM 50.0 °F 46.9 °F 89% 30.00 in 10.0 mi SSW 6.9 mph - N/A   Clear
6:53 AM 51.1 °F 46.9 °F 86% 30.00 in 10.0 mi WSW 4.6 mph - N/A   Partly Cloudy
7:53 AM 54.0 °F 48.0 °F 80% 30.02 in 10.0 mi SW 3.5 mph - N/A   Scattered Clouds
8:53 AM 57.9 °F 48.9 °F 72% 30.02 in 10.0 mi NNE 3.5 mph - N/A   Mostly Cloudy
9:53 AM 60.1 °F 50.0 °F 69% 30.01 in 10.0 mi Variable 4.6 mph - N/A   Mostly Cloudy
10:53 AM 64.9 °F 51.1 °F 61% 29.97 in 10.0 mi NNE 5.8 mph - N/A   Clear
11:53 AM 69.1 °F 46.9 °F 45% 29.94 in 10.0 mi SE 13.8 mph 25.3 mph N/A   Partly Cloudy
12:53 PM 71.1 °F 45.0 °F 39% 29.93 in 10.0 mi SE 10.4 mph 20.7 mph N/A   Partly Cloudy
1:53 PM 73.0 °F 45.0 °F 37% 29.90 in 10.0 mi Variable 5.8 mph - N/A   Scattered Clouds
2:53 PM 73.0 °F 43.0 °F 34% 29.90 in 10.0 mi East 10.4 mph 17.3 mph N/A   Scattered Clouds
3:53 PM 72.0 °F 43.0 °F 35% 29.89 in 10.0 mi SE 8.1 mph - N/A   Clear
4:53 PM 72.0 °F 44.1 °F 37% 29.89 in 10.0 mi ENE 4.6 mph - N/A   Partly Cloudy
5:53 PM 72.0 °F 44.1 °F 37% 29.89 in 10.0 mi Calm Calm - N/A   Partly Cloudy
6:53 PM 68.0 °F 46.0 °F 45% 29.89 in 10.0 mi Calm Calm - N/A   Clear
7:53 PM 68.0 °F 46.9 °F 47% 29.89 in 10.0 mi NW 3.5 mph - N/A   Clear
8:53 PM 61.0 °F 50.0 °F 67% 29.91 in 9.0 mi South 4.6 mph - N/A   Clear
9:53 PM 59.0 °F 50.0 °F 72% 29.91 in 10.0 mi Calm Calm - N/A   Clear
10:53 PM 57.0 °F 50.0 °F 77% 29.90 in 8.0 mi South 4.6 mph - N/A   Clear
11:53 PM 57.0 °F 48.0 °F 72% 29.88 in 10.0 mi South 9.2 mph - N/A   Clear